Weather History for KNFL - April, 2013

Change the Weather History Date:

Wednesday, April 17, 2013

  Actual Average Record
Temperature  
Mean Temperature 38 °F -  
Max Temperature 52 °F 64 °F 84 °F (1936)
Min Temperature 26 °F 35 °F 17 °F (1963)
Degree Days  
Heating Degree Days 26    
Moisture  
Dew Point 11 °F    
Average Humidity 38    
Maximum Humidity 72    
Minimum Humidity 16    
Precipitation  
Precipitation 0.00 in - - ()
Sea Level Pressure  
Sea Level Pressure 30.13 in    
Wind  
Wind Speed 6 mph (NNW)    
Max Wind Speed 15 mph    
Max Gust Speed 20 mph    
Visibility 10 miles    
Events      
Averages and records for this station are not official NWS values.
T = Trace of Precipitation, MM = Missing Value Source: NWS Daily Summary

Daily Weather History Graph

Daily Weather History Graph

Search for Another Location

Airport or City:

Trip Planner

Search our weather history database for the weather conditions in past years. The results will help you decide how hot, cold, wet, or windy it might be!

Date:

Astronomy

Apr. 17, 2013 Rise Set
Actual Time 6:14 AM PDT 7:34 PM PDT
Civil Twilight 5:46 AM PDT 8:02 PM PDT
Nautical Twilight 5:12 AM PDT 8:36 PM PDT
Astronomical Twilight 4:37 AM PDT 9:11 PM PDT
Moon 11:33 AM PDT (4/17) 1:15 AM PDT (4/17)
Length of Visible Light 14h 16m
Length of Day
13h 20m
Waxing Crescent, 43% of the Moon is Illuminated
Apr 17
Waxing Crescent
Apr 18
First Quarter
Apr 25
Full
May 2
Last Quarter
May 9
New

Hourly Weather History & Observations

Time (PDT) Temp. Windchill Dew Point Humidity Pressure Visibility Wind Dir Wind Speed Gust Speed Precip Events Conditions
12:56 AM 34.0 °F 28.0 °F 21.9 °F 61% 30.04 in 10.0 mi West 6.9 mph - N/A   Scattered Clouds
1:56 AM 28.9 °F - 21.0 °F 72% 30.05 in 10.0 mi Calm Calm - N/A   Clear
2:56 AM 28.9 °F 25.2 °F 18.0 °F 64% 30.05 in 10.0 mi NNW 3.5 mph - N/A   Clear
3:56 AM 30.0 °F - 14.0 °F 51% 30.06 in 10.0 mi Calm Calm - N/A   Clear
4:56 AM 28.0 °F - 14.0 °F 56% 30.07 in 10.0 mi Calm Calm - N/A   Partly Cloudy
5:56 AM 26.1 °F 18.4 °F 12.9 °F 58% 30.09 in 10.0 mi North 6.9 mph - N/A   Clear
6:12 AM 26.6 °F 20.0 °F 12.2 °F 55% 30.20 in 10.0 mi North 5.8 mph - N/A   Partly Cloudy
6:56 AM 26.1 °F 16.8 °F 14.0 °F 60% 30.11 in 10.0 mi NNW 9.2 mph - N/A   Partly Cloudy
7:56 AM 32.0 °F 23.6 °F 14.0 °F 48% 30.14 in 10.0 mi North 10.4 mph - N/A   Partly Cloudy
8:56 AM 37.0 °F 28.5 °F 12.9 °F 37% 30.15 in 10.0 mi North 13.8 mph - N/A   Partly Cloudy
9:56 AM 37.9 °F 31.5 °F 12.9 °F 36% 30.16 in 10.0 mi North 9.2 mph - N/A   Partly Cloudy
10:56 AM 41.0 °F 36.4 °F 12.0 °F 31% 30.17 in 10.0 mi NNE 6.9 mph - N/A   Partly Cloudy
11:56 AM 43.0 °F 38.2 °F 12.0 °F 28% 30.17 in 10.0 mi NW 8.1 mph 19.6 mph N/A   Partly Cloudy
12:56 PM 46.0 °F 41.9 °F 10.9 °F 24% 30.16 in 10.0 mi North 8.1 mph 17.3 mph N/A   Partly Cloudy
1:56 PM 48.0 °F - 10.0 °F 22% 30.15 in 10.0 mi North 11.5 mph 19.6 mph N/A   Partly Cloudy
2:56 PM 51.1 °F - 10.0 °F 19% 30.14 in 10.0 mi NW 11.5 mph 16.1 mph N/A   Partly Cloudy
3:56 PM 50.0 °F - 8.1 °F 18% 30.13 in 10.0 mi Variable 3.5 mph - N/A   Partly Cloudy
4:56 PM 51.1 °F - 8.1 °F 18% 30.12 in 10.0 mi NW 8.1 mph - N/A   Partly Cloudy
5:56 PM 51.1 °F - 6.1 °F 16% 30.13 in 10.0 mi NW 15.0 mph - N/A   Clear
6:56 PM 50.0 °F - 5.0 °F 16% 30.14 in 10.0 mi North 12.7 mph - N/A   Clear
7:56 PM 45.0 °F 41.2 °F 6.1 °F 20% 30.15 in 10.0 mi North 6.9 mph - N/A   Clear
8:56 PM 39.0 °F 34.0 °F 5.0 °F 24% 30.17 in 10.0 mi NNE 6.9 mph - N/A   Clear
9:56 PM 37.9 °F - 6.1 °F 27% 30.18 in 10.0 mi Calm Calm - N/A   Clear
10:56 PM 32.0 °F 28.7 °F 9.0 °F 38% 30.18 in 10.0 mi SSE 3.5 mph - N/A   Clear
11:56 PM 32.0 °F 28.7 °F 10.9 °F 42% 30.19 in 10.0 mi WSW 3.5 mph - N/A   Clear